ASIASAT 7

Last updated on Sun Jul 06 2025 00:02:44 GMT+0000 (Coordinated Universal Time)

1 37933U 11069A 25186.58660478 -.00000318 00000+0 00000+0 0 9999 2 37933 0.0186 260.9270 0001719 179.3169 160.2587 1.00273613 41380
UTC large
Height (km)
Speed (km/s)
/
Latitude / Longitude
Inclination (degrees)
Orbital Period (minutes)
Azimuth
Elevation
Range (km)
Doppler Factor

Next 0 passes for location: London (51.5072 / 0.1276)

Sorry there are no passes over London.